Wind_Speed
28 28 28 28 28 28 28 29 28 27 28 28 28 27 26 26 27 26 26 26 26 26 26 25 25 25 24 24 24 24 23 23 24 25 25 26 27 28 29 30 31 33 34 35
29 28 28 28 29 29 29 29 29 29 29 30 29 28 27 27 26 26 26 26 26 26 25 25 25 25 25 24 24 24 23 23 23 24 25 26 26 26 27 29 30 31 33 33
29 28 29 29 30 30 30 30 30 31 31 31 31 29 27 27 27 27 26 26 26 26 25 25 25 25 25 24 24 24 24 24 24 24 25 25 26 26 27 27 28 30 31 31
30 29 30 30 30 31 31 31 31 32 32 32 31 31 26 27 27 27 27 27 27 26 26 26 25 25 25 25 25 25 25 25 25 25 25 25 25 25 26 27 27 28 28 29
30 30 31 31 31 31 32 32 32 32 33 33 31 33 29 27 27 26 27 27 27 27 27 26 25 25 25 25 25 25 25 25 25 25 25 25 25 25 26 26 26 26 27 27
30 30 31 31 31 31 32 32 33 33 34 34 32 33 31 28 27 28 28 28 28 28 27 26 26 25 25 25 25 25 25 25 25 25 26 25 25 25 26 26 25 25 26 27
31 30 31 31 32 32 31 31 32 33 34 35 32 33 31 29 28 29 28 28 28 28 27 27 26 26 26 26 25 25 25 25 25 25 26 26 25 25 25 25 26 27 27 28
33 32 31 31 32 32 31 32 32 33 33 33 32 32 31 30 29 29 29 29 28 28 28 27 27 26 26 26 26 25 25 25 26 25 25 25 25 25 26 26 26 27 28 29
35 34 32 32 32 32 32 31 31 33 33 33 33 32 31 30 30 30 30 29 28 28 28 28 27 27 27 26 26 26 26 26 26 25 25 25 25 25 26 27 27 27 28 29
36 36 34 33 33 33 33 32 31 32 33 34 33 32 31 30 30 30 30 30 30 30 29 29 28 27 27 26 26 26 26 26 26 26 26 25 26 26 27 28 28 28 28 29
36 37 35 34 33 33 33 33 33 34 34 35 35 32 31 30 30 30 30 30 30 30 30 29 29 28 27 27 27 26 26 27 27 27 27 26 26 26 27 28 29 29 29 29
37 38 37 35 34 35 34 33 33 34 35 36 37 35 31 31 32 31 31 30 30 30 30 30 29 29 28 27 27 26 27 27 28 28 27 27 27 27 28 28 29 29 30 30
38 39 39 37 36 36 35 34 34 35 37 37 37 35 33 34 33 33 32 31 31 31 30 30 29 29 29 28 28 27 27 28 29 29 29 28 28 28 29 29 29 30 30 30
39 40 39 39 37 37 38 37 36 37 38 38 37 35 34 35 35 35 34 34 33 33 32 31 31 30 30 30 29 29 29 29 30 30 30 30 29 29 29 29 29 30 30 29
39 39 40 40 39 39 39 38 38 38 38 39 37 37 35 35 36 37 37 35 35 35 35 34 33 32 31 31 30 30 30 30 30 30 30 30 30 30 29 29 28 28 28 29
39 39 39 40 40 41 41 40 40 40 39 39 39 38 36 36 37 38 38 37 37 37 36 36 35 34 33 33 32 31 30 30 31 31 31 30 30 29 29 29 29 28 28 28
37 38 38 39 39 41 42 39 40 40 40 40 40 39 38 38 38 38 38 37 37 38 38 37 37 36 35 34 33 32 31 32 32 31 30 30 30 30 30 29 29 28 29 29
35 36 37 38 38 41 38 38 39 40 40 40 41 41 40 39 39 39 39 38 38 38 38 38 37 37 36 35 35 34 33 32 32 31 31 31 31 31 31 31 30 30 29 29
34 35 36 37 38 39 37 37 38 40 40 41 42 42 42 41 41 40 40 39 39 37 37 37 37 36 36 36 35 35 34 33 32 32 32 32 32 32 32 32 32 31 31 31
35 35 36 37 38 39 36 36 37 40 41 40 41 42 42 43 42 41 41 40 40 38 37 37 37 37 36 36 36 35 34 33 33 32 32 33 33 34 34 34 33 33 33 32
34 35 35 36 37 38 36 36 36 38 39 40 41 41 42 42 43 41 41 41 40 39 38 38 38 37 37 37 36 35 34 33 33 33 34 34 34 34 34 34 33 33 32 32
34 34 35 35 36 35 35 37 37 38 38 39 40 40 41 41 41 41 41 41 40 39 38 38 38 37 37 36 35 34 34 34 34 34 34 35 35 34 34 34 33 32 32 32
34 34 35 36 37 36 36 37 38 38 38 38 38 39 40 40 39 40 39 39 39 39 39 37 37 37 37 36 36 35 35 35 35 35 35 35 35 34 34 34 33 32 32 32
34 34 36 36 36 37 37 37 37 38 39 38 39 39 39 39 39 38 38 37 37 38 38 37 36 36 36 36 36 37 37 37 37 37 36 36 35 35 35 34 33 33 33 33
34 35 36 37 36 37 37 38 37 37 38 38 37 37 37 38 38 38 37 36 36 36 37 37 37 36 37 37 37 37 37 37 37 37 36 35 34 34 34 33 33 33 33 33
34 36 37 37 36 37 36 37 38 38 37 37 36 35 35 35 35 36 36 36 36 35 35 35 36 37 36 37 37 37 36 36 36 36 36 35 34 34 34 33 33 33 33 33
Wind_Direction
276 273 271 271 270 269 267 268 268 269 269 270 270 271 273 274 276 278 279 279 280 281 282 282 282 282 282 283 281 278 277 273 272 273 273 275 276 276 272 270 268 265 261 258
276 272 271 269 268 267 267 268 268 268 269 270 270 271 273 274 275 277 279 279 280 281 283 283 282 282 282 283 281 277 278 275 273 274 274 276 277 277 275 273 272 267 263 261
276 273 269 267 266 266 266 267 268 268 268 269 271 270 271 273 275 276 278 278 279 281 282 282 282 281 282 282 280 278 278 277 274 276 277 277 279 279 277 275 272 268 264 262
275 272 269 267 266 267 267 266 267 268 268 270 271 272 269 272 274 275 277 277 277 279 280 281 281 280 281 282 281 278 277 277 275 277 279 280 278 279 279 276 274 269 266 262
276 273 270 268 268 268 269 268 267 268 268 269 270 273 271 273 274 275 276 277 277 278 280 280 280 280 280 281 280 279 277 277 275 276 278 280 280 280 280 277 274 271 269 266
276 273 271 270 269 269 270 269 268 267 268 269 271 273 274 275 276 277 277 277 277 278 279 279 279 280 280 280 280 279 277 277 276 276 278 278 280 280 280 279 275 273 271 269
275 273 272 271 270 269 269 269 269 269 269 270 272 273 275 277 277 277 277 278 278 277 278 278 278 279 279 280 280 279 277 277 277 276 278 279 279 279 279 279 278 276 274 271
277 273 271 271 270 271 270 269 268 270 272 273 271 272 274 275 276 277 276 277 277 277 276 277 278 278 278 279 279 279 277 277 276 276 278 278 279 278 278 278 278 277 275 272
278 274 271 270 270 270 269 268 267 268 269 272 272 272 273 275 276 276 276 276 276 275 275 276 276 277 278 278 278 278 277 277 275 276 279 279 279 279 280 280 280 278 277 276
277 275 271 270 269 267 267 267 266 266 268 270 271 273 275 275 275 275 275 275 274 273 273 275 276 276 277 278 277 278 277 276 274 276 278 279 280 281 281 280 280 280 278 276
276 275 271 269 269 268 266 265 265 265 265 268 271 272 275 276 274 273 272 273 273 273 273 273 274 275 276 277 277 277 277 275 273 275 277 278 280 281 281 280 280 279 278 276
275 273 271 268 266 266 265 265 265 265 265 267 269 270 272 273 272 272 271 272 271 271 271 272 272 273 275 276 277 277 276 274 273 275 276 276 278 281 281 281 280 279 278 276
273 271 271 268 265 264 263 264 264 264 265 266 268 269 270 271 271 270 269 270 270 270 270 270 271 273 274 275 276 276 276 273 273 275 275 275 277 280 281 281 280 280 280 278
271 269 268 267 267 265 263 262 263 263 265 267 268 269 269 270 271 271 270 268 268 269 270 270 270 272 273 274 275 275 275 275 275 275 274 275 277 280 281 281 281 281 280 279
272 269 267 265 265 264 263 263 263 264 266 267 268 269 269 269 270 270 269 269 268 268 268 269 269 270 271 273 275 275 275 275 275 276 275 275 277 279 281 281 281 281 280 280
272 272 269 266 265 264 264 263 263 264 264 266 267 268 268 268 268 268 268 268 267 267 267 268 269 269 270 272 273 275 274 274 275 276 276 276 277 278 280 280 281 282 283 283
274 273 272 270 266 265 264 264 264 264 265 265 265 267 267 266 267 268 268 268 268 267 267 267 267 267 269 270 271 272 273 274 276 277 276 276 277 277 280 281 280 281 283 283
273 273 273 272 269 267 268 267 266 264 264 265 265 266 267 267 266 267 268 269 268 268 267 268 268 268 268 269 270 272 273 275 275 275 275 275 276 277 279 280 280 281 282 283
272 273 272 272 271 270 269 268 268 267 265 265 265 266 266 266 265 266 268 268 269 269 268 266 267 267 268 268 269 271 272 273 272 273 274 274 276 277 278 279 280 281 282 283
272 272 272 271 270 271 272 271 270 269 268 267 266 266 266 265 264 265 266 267 267 268 267 265 265 266 267 268 268 269 269 270 271 272 273 274 275 276 278 279 279 280 280 280
271 270 270 271 272 272 274 273 271 271 270 269 267 266 266 266 266 265 265 266 265 265 265 264 264 264 264 266 267 267 267 268 269 271 272 274 275 276 277 279 279 279 279 279
273 272 271 272 273 275 274 274 272 272 271 270 269 268 268 268 267 266 266 265 264 264 263 263 262 261 262 263 264 265 266 267 269 271 272 274 274 274 275 278 279 279 280 279
270 270 271 272 273 274 273 273 272 272 271 270 269 268 267 267 266 266 266 265 264 263 263 262 261 260 260 261 262 264 265 267 268 270 272 273 273 274 275 278 278 279 278 278
271 270 270 271 273 273 272 271 271 272 271 271 269 268 268 267 266 266 266 265 264 263 263 261 260 259 259 261 262 263 265 266 268 269 270 271 272 274 275 275 276 277 278 279
273 271 271 272 273 271 270 270 270 270 270 270 270 269 268 267 266 267 266 265 264 263 263 261 259 259 260 261 262 263 265 266 267 268 270 271 272 273 274 274 274 276 277 278
274 272 273 274 274 273 270 269 270 270 270 270 271 270 269 268 267 266 265 264 264 263 262 261 259 259 260 260 261 262 264 265 266 268 269 270 272 273 273 273 273 275 277 278
Height
5732 5733 5732 5732 5732 5731 5731 5731 5731 5732 5731 5731 5732 5733 5733 5732 5732 5731 5731 5730 5729 5729 5727 5726 5725 5724 5722 5721 5720 5719 5719 5718 5718 5718 5717 5717 5716 5715 5714 5714 5714 5714 5715 5716
5725 5725 5725 5724 5723 5723 5723 5723 5724 5725 5724 5723 5724 5725 5726 5726 5725 5725 5724 5723 5722 5722 5721 5720 5718 5717 5716 5715 5714 5713 5713 5712 5712 5711 5711 5710 5709 5709 5708 5707 5707 5707 5707 5708
5717 5718 5716 5716 5716 5716 5716 5716 5717 5717 5716 5716 5716 5718 5720 5719 5718 5718 5717 5717 5716 5715 5714 5713 5712 5711 5710 5709 5708 5707 5707 5706 5706 5705 5705 5704 5703 5702 5702 5701 5700 5700 5700 5701
5709 5709 5708 5708 5708 5708 5708 5708 5708 5708 5708 5708 5709 5708 5713 5712 5712 5711 5711 5709 5708 5708 5707 5706 5705 5704 5703 5703 5702 5701 5700 5700 5699 5699 5698 5697 5697 5696 5696 5695 5694 5694 5694 5694
5701 5701 5700 5700 5701 5700 5700 5700 5700 5700 5700 5700 5701 5700 5704 5705 5704 5704 5703 5702 5701 5701 5700 5699 5699 5698 5697 5696 5695 5695 5694 5693 5693 5692 5692 5691 5690 5690 5689 5689 5688 5688 5688 5688
5693 5692 5692 5692 5692 5691 5691 5692 5692 5691 5691 5692 5694 5693 5694 5697 5696 5696 5696 5695 5694 5694 5693 5693 5692 5691 5690 5689 5689 5688 5688 5687 5686 5686 5685 5685 5684 5683 5683 5682 5682 5682 5682 5682
5685 5685 5684 5684 5683 5684 5684 5684 5684 5683 5682 5684 5686 5685 5688 5688 5688 5687 5687 5687 5687 5686 5686 5685 5685 5684 5684 5683 5682 5681 5681 5680 5680 5680 5679 5678 5677 5677 5676 5676 5675 5675 5675 5675
5675 5677 5676 5675 5675 5675 5675 5676 5677 5676 5675 5676 5677 5677 5680 5680 5680 5679 5679 5679 5679 5679 5679 5678 5678 5677 5677 5676 5675 5675 5674 5674 5673 5673 5672 5672 5671 5670 5670 5669 5669 5668 5668 5668
5666 5667 5667 5667 5667 5667 5667 5667 5668 5667 5667 5667 5668 5670 5672 5672 5671 5671 5671 5671 5671 5671 5671 5671 5671 5671 5670 5669 5668 5668 5668 5667 5667 5666 5666 5665 5664 5664 5663 5662 5662 5661 5661 5660
5656 5657 5659 5658 5658 5658 5659 5659 5659 5659 5658 5658 5660 5662 5663 5663 5662 5663 5663 5662 5663 5663 5663 5663 5663 5663 5663 5662 5662 5661 5661 5660 5660 5659 5659 5658 5658 5657 5656 5655 5654 5653 5653 5652
5647 5646 5648 5649 5650 5650 5650 5651 5650 5650 5651 5651 5651 5656 5655 5654 5654 5654 5654 5654 5654 5655 5655 5655 5655 5655 5655 5655 5655 5654 5653 5653 5653 5652 5652 5651 5651 5650 5648 5647 5646 5645 5644 5644
5637 5636 5637 5639 5640 5639 5640 5641 5642 5642 5642 5642 5642 5647 5647 5646 5645 5645 5645 5645 5646 5646 5646 5647 5647 5647 5647 5647 5647 5647 5646 5646 5646 5645 5645 5644 5643 5642 5641 5639 5638 5637 5636 5635
5627 5626 5626 5628 5631 5630 5630 5631 5632 5632 5632 5632 5633 5638 5637 5636 5636 5636 5636 5637 5637 5638 5638 5638 5639 5639 5639 5639 5639 5639 5639 5638 5638 5638 5637 5636 5635 5634 5633 5631 5630 5629 5628 5627
5615 5615 5617 5618 5619 5619 5620 5622 5622 5622 5622 5623 5624 5626 5627 5626 5626 5626 5627 5627 5628 5629 5629 5629 5630 5631 5631 5631 5631 5631 5631 5630 5630 5630 5629 5629 5628 5626 5625 5623 5622 5621 5619 5618
5604 5604 5605 5606 5607 5607 5609 5611 5612 5612 5612 5613 5614 5615 5617 5616 5616 5616 5617 5617 5618 5619 5620 5620 5621 5622 5622 5623 5623 5623 5622 5622 5622 5621 5621 5620 5619 5618 5617 5616 5614 5612 5611 5610
5593 5593 5594 5595 5596 5595 5597 5600 5601 5602 5602 5603 5603 5605 5607 5606 5606 5606 5607 5607 5608 5608 5609 5610 5612 5613 5613 5614 5614 5614 5614 5613 5613 5613 5612 5611 5611 5610 5609 5608 5607 5605 5603 5602
5583 5582 5582 5584 5584 5583 5585 5590 5591 5591 5592 5592 5592 5595 5595 5596 5596 5596 5596 5597 5598 5598 5599 5600 5602 5602 5603 5604 5604 5605 5605 5604 5604 5603 5603 5603 5602 5602 5601 5600 5599 5597 5596 5594
5573 5572 5571 5571 5573 5572 5579 5579 5579 5579 5580 5581 5581 5582 5583 5584 5585 5585 5586 5586 5587 5588 5589 5590 5591 5592 5594 5594 5595 5595 5595 5595 5595 5594 5594 5594 5593 5593 5592 5591 5590 5589 5587 5586
5563 5563 5561 5561 5560 5561 5567 5568 5567 5567 5568 5569 5569 5570 5571 5572 5573 5574 5575 5575 5576 5577 5578 5579 5581 5582 5583 5584 5585 5585 5585 5585 5585 5585 5585 5585 5584 5584 5583 5582 5581 5580 5579 5578
5554 5553 5552 5551 5550 5551 5557 5557 5556 5556 5556 5558 5557 5557 5558 5559 5561 5564 5563 5564 5565 5566 5567 5568 5569 5571 5572 5573 5574 5575 5575 5576 5576 5576 5576 5575 5574 5574 5573 5573 5572 5571 5569 5568
5544 5543 5543 5542 5540 5541 5546 5545 5545 5546 5546 5545 5544 5545 5546 5547 5548 5550 5551 5552 5553 5554 5556 5557 5558 5560 5561 5562 5563 5565 5565 5566 5566 5566 5566 5565 5565 5564 5564 5563 5562 5561 5560 5559
5534 5534 5534 5533 5531 5535 5535 5534 5534 5533 5533 5533 5533 5533 5534 5535 5536 5537 5538 5539 5541 5542 5544 5545 5547 5549 5550 5552 5553 5554 5555 5556 5556 5556 5556 5555 5555 5554 5554 5553 5552 5552 5551 5550
5524 5525 5523 5523 5524 5524 5523 5522 5521 5521 5522 5522 5521 5522 5522 5523 5524 5525 5526 5528 5529 5531 5533 5534 5536 5538 5540 5541 5542 5544 5545 5545 5545 5546 5546 5545 5545 5544 5544 5543 5543 5542 5541 5541
5514 5514 5513 5512 5513 5513 5512 5511 5511 5510 5510 5510 5510 5510 5510 5511 5513 5514 5515 5516 5518 5519 5521 5523 5525 5527 5529 5530 5532 5533 5534 5534 5534 5535 5535 5535 5534 5534 5534 5533 5533 5532 5531 5530
5504 5503 5501 5500 5502 5501 5501 5500 5500 5499 5499 5498 5499 5499 5499 5500 5501 5503 5504 5505 5506 5508 5509 5511 5513 5516 5518 5519 5521 5522 5522 5523 5523 5524 5524 5524 5524 5524 5523 5523 5522 5521 5521 5520
5493 5491 5490 5490 5490 5489 5490 5489 5489 5488 5488 5488 5488 5489 5489 5489 5490 5491 5493 5494 5495 5497 5498 5500 5502 5504 5506 5508 5509 5510 5511 5512 5512 5513 5513 5513 5513 5513 5513 5512 5512 5511 5510 5510